EW4608 Weather Reports


Display with metric or nautical units.
time (UTC)temp
F
wind
direction
speed
MPH
gust
MPH
rain 1hr
in
rain 24hr
in
rain mn
in
humidity
%
barometer
mb
20211129110039 20 101 0.0 0.0 0.00 0.00 0.00 76 1023.1
20211129104540 19 176 0.0 0.0 0.00 0.00 0.00 78 1023.0
20211129103008 20 176 0.0 0.0 0.00 0.00 0.00 79 1022.9
20211129101512 20 176 0.0 0.0 0.00 0.00 0.00 79 1022.9
20211129100016 20 176 0.0 0.0 0.00 0.00 0.00 79 1022.8
20211129094506 20 176 0.0 0.0 0.00 0.00 0.00 80 1022.7
20211129093004 21 176 0.0 0.0 0.00 0.00 0.00 80 1022.7
20211129091505 21 176 0.0 0.0 0.00 0.00 0.00 80 1022.8
20211129090001 21 176 0.0 0.0 0.00 0.00 0.00 81 1022.7
20211129084557 21 252 0.0 0.0 0.00 0.00 0.00 81 1022.8
20211129083140 22 252 0.0 0.0 0.00 0.00 0.00 81 1022.8
20211129081711 23 252 0.0 0.0 0.00 0.00 0.00 81 1022.7
20211129080059 23 252 0.0 0.0 0.00 0.00 0.00 81 1022.7
20211129074631 24 335 0.0 0.0 0.00 0.00 0.00 81 1022.7
20211129073107 25 335 0.0 0.0 0.00 0.00 0.00 81 1022.5
20211129071620 25 335 0.0 0.0 0.00 0.00 0.00 80 1022.6
20211129070125 25 335 0.0 0.0 0.00 0.00 0.00 80 1022.4
20211129064549 25 335 0.0 0.0 0.00 0.00 0.00 81 1022.2
20211129063131 25 335 0.0 0.0 0.00 0.00 0.00 80 1022.1
20211129061601 25 335 0.0 0.0 0.00 0.00 0.00 80 1022.2
20211129060123 26 335 0.0 0.0 0.00 0.00 0.00 80 1022.1
20211129054545 26 335 0.0 0.0 0.00 0.00 0.00 79 1022.3
20211129053028 27 335 0.0 0.0 0.00 0.00 0.00 78 1022.4
20211129051547 27 335 0.0 0.0 0.00 0.00 0.00 77 1022.2
20211129050059 27 335 0.0 0.0 0.00 0.00 0.00 75 1022.2
20211129044526 27 335 0.0 0.0 0.00 0.00 0.00 75 1022.2
20211129043052 27 335 0.0 0.0 0.00 0.00 0.00 75 1022.2
20211129041523 27 335 0.0 0.0 0.00 0.00 0.00 75 1022.1
20211129040053 27 335 0.0 0.0 0.00 0.00 0.00 71 1021.8
20211129034538 28 335 0.0 0.0 0.00 0.00 0.00 69 1021.8
20211129033019 29 335 0.0 0.0 0.00 0.00 0.00 68 1021.9
20211129031525 29 335 0.0 1.0 0.00 0.00 0.00 67 1021.9
20211129030022 29 335 0.0 0.0 0.00 0.00 0.00 67 1022.0
20211129024541 29 335 0.0 0.0 0.00 0.00 0.00 66 1021.7
20211129023020 31 335 0.0 1.0 0.00 0.00 0.00 64 1021.5
20211129021501 32 335 0.0 0.0 0.00 0.00 0.00 61 1021.5
20211129020112 33 335 0.0 2.0 0.00 0.00 0.00 58 1021.0
20211129014609 34 327 0.0 5.0 0.00 0.00 0.00 57 1021.1
20211129013059 35 302 1.0 4.0 0.00 0.00 0.00 56 1021.0
20211129011657 36 314 2.0 8.0 0.00 0.00 0.00 55 1020.8
20211129010130 36 313 2.0 10.0 0.00 0.00 0.00 53 1020.6
20211129004634 37 326 2.0 16.0 0.00 0.00 0.00 52 1020.3
20211129003122 37 305 2.0 10.0 0.00 0.00 0.00 50 1019.8
20211129001615 38 301 3.0 9.0 0.00 0.00 0.00 48 1019.8
20211129000053 39 312 3.0 13.0 0.00 0.00 0.00 46 1019.6
20211128234559 39 306 5.0 12.0 0.00 0.00 0.00 44 1019.3
20211128233059 39 283 1.0 4.0 0.00 0.00 0.00 46 1019.0
20211128231607 40 303 0.0 6.0 0.00 0.00 0.00 46 1018.6
20211128230108 40 338 1.0 5.0 0.00 0.00 0.00 49 1018.5
20211128224555 41 285 2.0 5.0 0.00 0.00 0.00 49 1018.1
20211128223205 42 302 2.0 7.0 0.00 0.00 0.00 49 1017.9
20211128221537 43 255 1.0 6.0 0.00 0.00 0.00 52 1017.8
20211128220054 44 298 4.0 9.0 0.00 0.00 0.00 50 1017.4
20211128214544 44 310 4.0 16.0 0.00 0.00 0.00 50 1017.6
20211128213101 45 336 2.0 9.0 0.00 0.00 0.00 50 1017.6
20211128211608 45 306 3.0 14.0 0.00 0.00 0.00 50 1017.3
20211128210122 46 278 1.0 10.0 0.00 0.00 0.00 51 1017.0
20211128204547 46 288 5.0 14.0 0.00 0.00 0.00 50 1016.9
20211128203029 46 307 5.0 11.0 0.00 0.00 0.00 48 1016.8
20211128201556 47 281 3.0 12.0 0.00 0.00 0.00 50 1016.9
20211128200108 46 346 4.0 13.0 0.00 0.00 0.00 49 1016.9
20211128194524 47 304 2.0 11.0 0.00 0.00 0.00 51 1017.0
20211128193027 47 299 4.0 8.0 0.00 0.00 0.00 52 1017.0
20211128191556 47 278 1.0 10.0 0.00 0.00 0.00 54 1017.0
20211128190025 46 276 3.0 15.0 0.00 0.00 0.00 53 1017.2
20211128184645 46 330 4.0 9.0 0.00 0.00 0.00 56 1017.2
20211128183022 45 294 2.0 9.0 0.00 0.00 0.00 58 1017.2
20211128181554 46 295 3.0 8.0 0.00 0.00 0.00 60 1017.4
20211128180015 46 323 3.0 6.0 0.00 0.00 0.00 60 1017.5
20211128174513 45 337 3.0 7.0 0.00 0.00 0.00 62 1017.5
20211128173008 45 263 4.0 11.0 0.00 0.00 0.00 63 1017.6
20211128171508 45 349 2.0 6.0 0.00 0.00 0.00 66 1017.8
20211128170005 44 293 3.0 7.0 0.00 0.00 0.00 65 1018.1
20211128164659 44 278 2.0 5.0 0.00 0.00 0.00 66 1018.2
20211128163220 43 256 1.0 6.0 0.00 0.00 0.00 67 1018.3
20211128161659 42 302 2.0 7.0 0.00 0.00 0.00 68 1018.5
20211128160147 42 339 2.0 5.0 0.00 0.00 0.00 70 1018.5
20211128154636 41 340 2.0 5.0 0.00 0.00 0.00 70 1018.7
20211128153121 41 291 1.0 4.0 0.00 0.00 0.00 73 1018.7
20211128151705 40 307 0.0 5.0 0.00 0.00 0.00 74 1018.6
20211128150138 39 286 2.0 5.0 0.00 0.00 0.00 75 1018.6
20211128144714 39 316 1.0 3.0 0.00 0.00 0.00 77 1018.5
20211128143112 38 276 0.0 3.0 0.00 0.00 0.00 78 1018.3
20211128141612 38 297 0.0 4.0 0.00 0.00 0.00 78 1018.5
20211128140122 37 329 0.0 0.0 0.00 0.00 0.00 79 1018.3
20211128134650 36 336 0.0 0.0 0.00 0.00 0.00 79 1018.2
20211128133128 34 299 0.0 0.0 0.00 0.00 0.00 77 1018.1
20211128131606 34 299 0.0 0.0 0.00 0.00 0.00 78 1017.9
20211128130100 33 301 0.0 3.0 0.00 0.00 0.00 78 1017.6
20211128124553 34 285 0.0 4.0 0.00 0.00 0.00 77 1017.3
20211128123049 34 290 0.0 0.0 0.00 0.00 0.00 78 1017.3
20211128121628 35 296 0.0 2.0 0.00 0.00 0.00 79 1017.0
20211128120032 36 271 0.0 3.0 0.00 0.00 0.00 79 1016.7
20211128114542 36 298 1.0 4.0 0.00 0.00 0.00 79 1016.2
20211128113028 37 317 1.0 4.0 0.00 0.00 0.00 79 1016.1
20211128111547 37 338 1.0 5.0 0.00 0.00 0.00 79 1015.9